CAPE
3217 3263 2613 3322 3375 3227 2904 2933 3082 3109 3056 3274 3318 3316 3226 3141 2985 2816 2745 2562 2368 2190 2037 1934 1876 1846 1791 1698 1761 1763 1899 1821 1638 1576 1592 1503 1407 1423 1461 1327 1231 1299 1344 1387 1254 1140 1322 1281 1191 1124 998 969 1042 1075 1126 1098 983 934 850 753 665 633 497 394 293 168 105 66 70 81 3 0 0 0 0 0 0 0 0 0 5 2 0 12 27
3390 2844 2652 2963 3279 3274 3003 2875 3017 3017 3090 3123 3179 3135 3139 3076 2939 2812 2710 2555 2314 2222 2116 2008 1972 2012 2000 1990 1984 2110 1914 1676 1606 1557 1680 1648 1530 1441 1344 1281 1271 1223 1162 1166 1221 1245 1318 1231 1149 1122 1257 1255 1270 1136 1095 955 842 727 642 560 424 247 204 195 159 74 15 0 0 0 0 0 0 0 0 0 4 21 13 10 10 6 11 16 12
3103 2899 2728 2829 3260 3095 2971 2834 2857 2783 2961 2940 3034 3017 2909 2942 2870 2757 2716 2536 2381 2265 2218 2230 2210 2186 2147 2160 2212 2094 1720 1732 1738 1835 1840 1676 1540 1393 1376 1146 1138 1174 1126 1143 1227 1392 1359 1318 1219 1184 1024 927 776 629 536 581 560 467 394 265 133 20 0 0 0 1 1 6 19 0 0 0 0 3 4 16 20 16 6 3 5 10 11 0 1
3246 3097 2681 3103 3280 3145 2887 2910 2867 2764 2817 2826 2872 2974 2864 2811 2764 2720 2633 2537 2441 2372 2456 2481 2395 2365 2366 2368 2271 2025 1949 1953 1938 1890 1761 1606 1555 1459 1362 1237 1140 1245 1258 1424 1401 1365 1356 1312 1278 1257 1204 1127 949 723 598 527 521 410 316 200 19 0 0 0 0 2 0 0 30 5 3 0 9 7 3 12 18 11 1 0 1 10 7 6 20
3325 2700 2633 2736 2879 3076 2983 2848 2806 2833 2810 2777 2841 2820 2886 2753 2733 2720 2624 2571 2504 2564 2654 2695 2653 2606 2496 2388 2315 2108 2060 2013 1966 1907 1845 1687 1608 1334 1271 1243 1331 1310 1357 1406 1455 1427 1420 1292 886 857 1022 1451 1200 925 705 533 381 263 142 39 7 7 3 0 0 0 0 0 0 0 0 0 14 8 7 20 17 8 2 7 19 1 9 20 19
3156 2774 2443 2342 2208 2880 2948 2767 2671 2694 2866 2806 2744 2770 2924 2889 2803 2692 2612 2703 2662 2697 2785 2765 2701 2588 2461 2413 2298 2156 2100 2081 2056 1969 1759 1706 1487 1479 1543 1493 1489 1452 1577 1478 1476 1435 1265 937 1154 1092 1304 1424 1245 857 623 437 243 68 12 3 0 0 0 0 0 0 0 0 0 0 0 5 1 15 30 29 20 23 32 34 29 18 14 17 14
2882 2612 2347 2201 2177 2592 2980 2838 2674 2730 2799 2920 2852 2860 2770 2684 2626 2637 2633 2806 2877 2798 2787 2754 2675 2499 2417 2352 2281 2298 2248 2172 2061 1833 1627 1626 1580 1523 1503 1492 1418 1458 1458 1519 1412 1387 1419 1329 1104 1020 1120 1295 1243 797 374 196 63 17 0 0 0 0 2 2 0 0 1 2 0 1 0 4 6 9 21 26 23 42 36 38 32 22 10 15 17
3144 2554 2038 2194 2291 3061 2855 2810 2656 2726 2849 3070 2953 2790 2742 2641 2446 2302 2525 2725 2756 2596 2738 2731 2589 2508 2377 2287 2427 2348 2231 2208 1898 1638 1612 1710 1917 1586 1369 1427 1556 1460 1435 1436 1461 1353 1100 813 1151 1200 1314 1362 1178 542 254 76 19 0 0 0 0 1 2 1 0 0 0 0 8 10 14 15 42 28 20 6 9 21 25 22 11 11 15 16 16
2828 2255 2346 2388 2550 2839 2962 2941 2748 2691 2994 3106 2894 2739 2733 2566 2355 2343 2375 2555 2605 2538 2719 2644 2521 2499 2479 2447 2352 2344 2285 2084 1883 1642 1662 1717 1812 1883 1671 1424 1458 1378 1317 1305 1273 1132 1103 1245 1359 1421 1442 1326 795 358 151 61 28 2 0 0 0 0 0 0 0 1 0 0 5 14 10 19 14 11 15 13 11 12 14 8 9 15 9 5 20
2677 2645 2431 2155 2456 3050 2980 2942 2896 2786 2875 2840 2823 2672 2585 2434 2319 2462 2586 2658 2556 2669 2672 2437 2528 2538 2481 2416 2452 2295 2095 2052 1708 1671 1758 1651 1535 1620 1803 1571 1330 1351 1381 1385 1308 1214 1373 1548 1545 1550 1382 1096 585 349 183 75 20 4 1 0 1 0 0 0 0 0 0 0 3 4 0 0 0 7 15 15 12 17 18 18 18 8 7 39 22
3026 2712 2660 2412 2636 3085 3050 3005 2950 2857 2736 2759 2713 2646 2512 2482 2578 2631 2696 2733 2779 2708 2558 2436 2448 2427 2426 2474 2426 2186 2096 2094 1918 1731 1721 1642 1595 1490 1506 1631 1524 1379 1395 1330 1340 1405 1572 1729 1540 1415 1122 770 490 270 173 114 36 11 2 0 0 0 0 0 2 0 0 0 0 0 2 8 0 2 28 22 18 32 30 25 20 10 20 23 22
3062 2689 2341 2610 3152 3086 3069 2988 2926 2823 2591 2733 2628 2568 2616 2662 2735 2694 2808 2799 2771 2764 2739 2602 2373 2381 2576 2484 2411 2225 2115 2053 1929 1783 1747 1681 1647 1628 1596 1562 1521 1572 1524 1461 1486 1597 1713 1671 1338 1028 826 651 496 300 169 64 28 4 0 0 0 0 0 0 0 0 2 5 8 2 4 0 3 12 16 23 25 32 25 10 3 16 20 20 18
3121 2849 3165 2961 2531 3124 3099 2993 2872 2729 2668 2622 2684 2576 2598 2723 2772 2706 2802 2781 2774 2753 2713 2734 2669 2728 2636 2458 2376 2224 2190 2146 1940 1882 1834 1874 1791 1786 1730 1616 1551 1530 1574 1717 1700 1579 1618 1499 1241 924 734 625 525 322 121 18 6 0 0 0 0 0 0 2 0 0 0 4 8 4 0 1 14 27 26 22 23 17 13 4 16 23 22 22 21
3023 3386 3368 2617 2408 3034 3002 2992 2897 2798 2723 2666 2663 2671 2691 2785 2832 2861 2904 2921 2855 2774 2870 2835 2831 2848 2738 2546 2404 2328 2307 2160 2063 1945 1859 1910 1888 1845 1861 1793 1682 1712 1760 1741 1615 1585 1501 1352 1218 1028 834 699 508 239 112 19 5 0 0 0 0 0 0 0 1 0 1 0 4 8 8 24 25 30 21 16 11 5 9 14 16 15 26 24 11
3095 3285 2882 2407 2679 2508 2900 2896 2938 2863 2754 2707 2745 2819 2791 2804 2876 2922 3015 2982 2984 3007 2998 2923 2902 2946 2868 2754 2494 2375 2234 2115 2072 1976 1898 1862 1996 1978 2006 1867 1752 1841 1853 1746 1574 1488 1339 1173 1120 1018 825 588 444 240 136 40 6 3 2 0 0 0 1 0 1 0 0 0 4 5 8 25 36 22 22 16 11 11 16 22 27 22 14 12 10
3361 3294 2861 2615 2451 2392 2445 3054 2846 2703 2761 2800 2801 2812 2799 2800 2885 2912 2935 2973 3028 2981 3004 2961 2826 2964 2851 2772 2560 2421 2363 2139 2094 2010 2005 1966 1959 2008 1986 1887 1836 1839 1758 1710 1552 1488 1303 1116 1065 1016 882 593 438 237 141 76 18 7 0 0 0 0 1 2 1 0 0 0 3 8 14 42 30 18 14 10 12 12 10 5 8 11 12 8 8
3428 3391 2982 2433 2509 2330 2013 2205 2518 2585 2676 2694 2788 2831 2818 2885 2901 2881 2874 2976 2992 3028 3031 2945 2830 2809 2811 2732 2632 2552 2503 2366 2200 2097 2101 2090 2044 1968 1991 1933 1873 1887 1709 1676 1600 1536 1328 1180 1130 1047 899 648 438 289 184 103 10 0 0 0 0 0 0 5 0 0 0 0 2 5 6 13 13 19 9 0 8 12 10 9 9 9 10 10 8
3555 3398 3016 2792 2471 2157 2148 2047 2176 2423 2064 2398 2667 2560 2767 2894 2847 2842 2883 2942 3012 2969 2952 2898 2827 2826 2757 2709 2670 2647 2595 2506 2335 2151 2202 2114 2074 1995 1934 1914 1803 1804 1614 1520 1582 1548 1315 1112 1108 1054 891 638 451 311 178 63 9 0 0 0 0 0 0 4 0 0 0 0 6 8 10 8 4 8 6 0 4 13 9 12 11 11 11 11 14
3160 3207 3183 2889 2358 2212 1912 2294 2048 1968 2178 1810 1743 2197 2339 2640 2758 2803 2870 2826 2964 2951 2865 2743 2814 2762 2742 2746 2690 2582 2600 2619 2553 2283 2322 2253 2144 2004 1965 1775 1822 1738 1596 1582 1584 1544 1566 1302 1052 1084 946 784 609 334 161 45 28 7 0 0 0 1 0 1 1 0 0 0 1 8 7 7 4 4 6 5 15 8 7 6 7 6 6 8 10
3423 3352 3505 3102 2769 2210 2357 2296 2088 2183 2272 2035 2146 1544 2153 2082 2433 2243 2566 2653 2506 2780 2631 2605 2688 2670 2693 2657 2573 2531 2558 2369 2494 2299 2090 2311 2168 1648 1923 1844 1860 1705 1582 1578 1691 1693 1677 1608 1285 1008 966 853 557 258 130 90 27 24 1 0 0 0 2 6 0 0 0 0 0 0 5 4 1 6 10 10 13 12 9 6 3 9 11 8 10
3242 2870 2855 3626 3222 2993 2856 2736 2706 2605 2432 2415 2246 1899 1697 2195 2216 2071 2387 2440 2566 2535 2391 2632 2739 2710 2759 2682 2556 2110 2205 2403 2519 2216 2446 1949 1961 2053 1918 1931 1931 1789 1632 1400 1556 1821 1947 1866 1494 1106 979 767 444 238 166 91 26 16 9 2 0 11 3 6 4 3 6 0 0 0 2 8 6 19 22 10 2 11 11 9 3 6 5 5 4
2464 2400 2438 2833 2123 2131 2224 2330 2761 2741 2606 2680 2584 2031 2293 2030 1960 1901 1999 2302 2429 2547 2516 2247 2674 2517 2311 2581 2112 1879 1758 1929 2007 2051 1970 1822 2117 2099 2010 2099 1882 1767 1698 1432 1522 1713 1784 1957 1660 1166 1014 648 393 324 250 130 60 35 33 8 126 3 9 5 7 4 2 0 3 0 0 2 8 24 17 1 5 21 14 3 6 8 5 4 3
2488 2147 2162 1880 1930 1970 1928 1848 1920 1917 2032 2232 1774 2779 1522 2155 1860 1891 1418 1586 1962 1976 1753 2029 2239 1961 2262 1798 1583 1667 1519 1446 2016 1827 1568 1534 1514 2122 2064 2087 1798 1745 1703 1564 1578 1688 1770 1922 1621 1224 984 684 862 989 770 650 368 94 4 53 12 1 7 8 6 1 0 0 0 0 0 5 10 9 9 6 12 16 14 5 4 10 6 7 1
2185 2419 2028 2083 1819 1875 2233 1843 1016 888 1118 1241 1473 1432 1668 1358 2336 1912 1935 1895 1692 1874 1863 1721 1481 1661 1630 1789 1744 1458 1460 1390 1656 1939 1825 1647 1846 1970 1975 1995 1849 1729 1632 1519 1393 1531 1606 1526 1418 1183 1045 793 1339 917 854 897 751 387 34 55 2 2 6 8 9 2 0 0 0 0 1 4 10 7 8 4 9 2 15 12 12 11 6 7 6
2244 2253 2272 1975 1988 1945 1323 1774 1186 1325 1166 940 1848 1396 1526 1751 1516 2090 2118 2017 1748 1964 1890 2007 1637 1795 1558 1826 1368 1662 1449 1408 1680 1635 1310 1256 1471 1456 1772 1361 1677 1633 1451 1311 1025 1135 1117 1212 1331 1312 1130 1468 1294 1283 1103 938 771 377 126 105 17 3 5 6 6 4 2 0 0 0 0 5 6 5 13 13 9 14 10 16 10 12 10 6 7
1892 2017 1908 1990 1683 1738 1436 1382 1430 1508 1424 1491 1788 1731 1433 1522 1724 1386 1365 1668 2234 2184 2135 1886 2009 1913 1709 1438 1286 1569 1477 1043 1475 1422 1155 1149 1259 1114 1238 1289 1296 1250 1392 1327 1259 659 828 848 838 1003 1272 1472 1417 1283 1084 890 612 447 305 198 45 7 4 4 7 8 5 0 0 0 0 0 2 3 6 10 8 6 21 13 11 12 10 5 0
3310 2590 1864 2037 1606 1598 1680 1757 1738 1814 1836 1729 1603 1668 1511 1358 1533 1307 1260 1247 1059 1180 2124 2064 2052 2215 2219 1452 1588 1478 1444 1168 1468 1550 1292 1030 1163 1037 1070 1175 1241 1490 1298 1257 1384 1216 1210 1133 1140 1146 1067 1253 1330 1305 1190 923 618 414 389 235 118 35 5 5 4 9 4 1 0 0 0 0 1 4 2 4 10 8 1 8 11 9 2 6 7
2876 2075 2112 1768 1472 1628 1950 1963 1715 1770 1669 1807 1725 1487 1671 1677 1860 1317 1286 1496 1242 1354 1343 1686 2377 2314 2472 2286 1672 1341 1396 1221 1358 1398 1331 1216 1096 1138 969 983 996 1304 1194 1246 1125 1253 1254 1217 1182 1168 1075 1082 1327 1300 1124 866 620 648 470 396 281 161 46 4 9 5 8 5 0 0 0 2 3 3 2 6 4 5 6 7 7 10 6 5 7
2693 2315 1853 1775 1501 2027 2131 2057 2102 2000 1921 1892 2032 1767 1581 1700 1484 1559 1364 1205 1446 1423 1428 1331 1691 1726 1957 2380 2090 1627 1199 1118 1200 1304 1130 1075 1040 1113 1049 958 967 1161 1330 1270 1092 1041 1066 1093 1026 1101 1203 1241 1324 1388 1199 969 853 839 689 541 438 354 186 40 23 3 5 7 1 0 0 0 0 0 5 4 0 3 3 5 7 7 9 10 8
2503 2456 1801 1765 1576 1914 2349 2510 2425 2490 2249 2108 2342 1898 1728 1673 1545 1567 1334 1239 1602 1298 1374 1718 1433 1690 1728 1790 1786 2126 1441 1202 1286 961 1065 1320 1039 1292 1296 1200 1075 932 1164 1076 1217 1014 1002 874 1004 1083 1166 1486 1377 1418 1301 1072 903 895 791 706 503 426 321 132 46 32 15 15 6 0 0 0 0 0 0 0 0 1 5 4 3 0 7 6 7
1999 1970 1752 2191 2352 2404 2520 2611 2526 2479 2556 2410 2211 2053 1880 1731 1835 1744 1556 1406 1495 1516 1334 1420 1753 1706 1538 1516 1253 1602 2006 1452 1332 1282 1089 1251 1237 1278 1055 1041 1123 1012 1104 890 936 971 1087 1109 933 1078 1177 1445 1624 1442 1310 1178 1099 844 829 854 722 601 470 346 151 79 43 38 17 2 0 0 0 0 0 0 0 0 0 1 2 1 0 0 4
1461 1320 1230 1217 1556 2058 2313 2147 2199 2426 2526 2696 2912 2766 2157 2029 2042 1905 2039 1987 1468 1328 1395 1783 1674 1321 1258 1584 1173 1263 1064 1410 1355 1869 1520 1387 1255 1030 941 856 783 1145 1050 998 856 777 855 846 987 1032 1120 1161 1644 1618 1434 1337 1307 983 906 891 811 703 573 509 316 140 122 144 66 30 2 0 0 0 0 0 0 0 0 0 0 0 0 0 0
891 821 780 745 704 1155 1632 1842 1878 1913 2089 2284 2538 2545 2496 2363 2472 2287 2276 2065 1943 1636 1862 1922 1994 1840 1484 1215 1201 1436 948 796 1028 1120 1679 1485 1424 1606 1210 1294 1199 972 1155 1288 1046 947 765 830 1006 888 1046 1040 1353 1602 1289 1270 1440 1330 1060 997 858 625 574 546 551 413 218 144 186 82 89 8 0 0 0 0 0 0 0 0 0 0 0 0 0
581 479 346 336 250 602 921 1034 1490 2145 2015 2036 2031 2253 2376 2098 2257 2378 1994 1930 2084 2235 2035 2311 2077 2113 1474 1162 1244 1154 1073 1157 776 1054 1124 1391 1494 1567 1128 1126 1156 1298 1252 1462 1288 1192 999 778 762 835 859 1017 1257 1462 1346 1124 1207 1527 1337 1107 1112 949 721 648 709 704 392 290 220 217 125 85 33 2 0 0 0 0 0 0 0 0 0 0 0
560 452 326 199 269 430 520 558 848 1531 1792 1771 1764 1937 1961 2074 2156 2234 2401 2128 1749 1973 1657 1764 1604 1742 1586 1396 1055 1172 1209 1030 771 835 1144 1651 1287 1317 1342 1134 1143 1256 1094 1252 1232 1131 1306 1173 994 711 789 991 1040 1106 1312 1121 1071 959 1073 1091 1127 1026 947 834 771 807 646 499 369 276 222 178 85 34 18 0 0 0 0 0 0 0 0 0 0
426 346 54 76 141 286 362 438 546 785 1444 1561 1592 1620 1809 1810 1994 2032 1998 2043 1942 1952 1867 1809 1633 1463 1581 1549 1159 1212 1131 1201 1052 1009 1292 1842 1292 1397 1287 1019 1026 1091 1097 1105 1241 1241 1083 1391 1307 1180 964 852 928 964 1282 1246 1364 1077 1088 1218 1167 1052 1086 983 884 835 664 646 542 406 268 268 163 69 20 49 8 0 0 0 0 0 0 0 0
296 9 10 23 46 92 310 373 390 580 821 1422 1628 1645 1640 1707 1674 1830 1996 2049 1912 1859 1918 1965 2218 2067 1619 1496 1451 1574 1251 1329 1295 1305 1352 1296 1068 1007 1330 872 1160 921 1100 1145 1020 1104 1123 1381 1240 1084 805 857 599 630 983 1008 1216 1436 1187 1452 1331 1260 1082 1108 1049 1155 866 835 791 501 372 302 202 36 40 12 38 13 0 0 0 0 0 0 0
0 0 0 2 0 25 136 251 272 427 748 974 1414 1712 1619 1644 1650 1813 1905 1758 1885 1878 1753 1795 1894 2006 1783 1750 1609 1665 1744 1496 1428 1493 1667 1358 1376 1605 1728 1264 1378 1207 1196 1286 1120 1086 1132 1434 1232 999 660 561 470 571 679 817 660 871 1136 1277 1451 1307 1404 1145 1229 1099 1120 1001 1032 847 653 510 278 153 34 24 79 60 55 0 0 0 0 0 0
2 5 4 2 3 6 16 63 129 267 388 540 713 732 1465 1793 1552 1692 1882 1863 1831 1798 1940 1897 1815 1881 1783 1599 1330 1436 1785 1789 1701 1598 1892 1504 1514 1802 1569 1285 1743 1442 1188 1190 1054 1092 1191 1428 1247 895 921 488 310 404 442 501 731 734 993 1223 1348 1513 1438 1232 1258 1333 1191 1017 1118 932 752 670 467 314 153 51 76 91 34 42 0 0 0 0 0
0 0 6 2 5 10 7 9 55 124 167 110 132 179 320 638 942 1182 1231 1553 1721 1875 1857 1779 1863 1857 1760 1760 1583 1510 1448 1540 1612 1533 1528 1729 1742 1940 1983 1308 1606 1500 1043 1132 1108 956 1268 1427 1467 1024 726 514 298 239 273 416 536 593 841 1071 998 1211 1234 1091 1178 1168 1164 1099 1066 1082 1045 825 714 519 256 114 74 61 99 45 31 21 20 0 0
0 1 12 17 35 15 3 4 10 13 78 52 56 179 308 404 829 1028 1192 1221 1214 1316 1553 1764 1761 1779 1783 1831 1778 1703 1408 1464 1373 1541 1501 1797 1830 1770 1730 2183 2326 1452 1152 1243 1321 1156 1177 1353 1258 1378 1084 716 458 290 351 441 730 876 901 856 947 1019 991 1166 1085 1169 1145 1247 1339 1302 1207 1085 930 823 437 301 127 72 64 67 30 22 10 33 0
0 0 5 34 77 52 12 22 1 2 10 79 32 55 85 171 448 873 1081 849 970 1170 1103 1460 1620 1708 1746 1647 1489 1462 1480 1251 1226 1297 1468 1896 1604 1614 1796 1533 1214 1551 1280 1193 1348 1449 1375 1265 1289 1068 1092 972 827 474 497 677 700 669 533 572 872 996 1012 1157 1088 1041 1005 1171 1446 1466 1505 1390 1174 978 755 450 328 87 53 60 47 37 43 9 30
0 0 0 18 61 40 44 45 53 23 6 26 16 30 82 173 276 417 910 960 1075 1209 1383 1409 1448 1563 1656 1672 1658 1532 1416 1266 1256 1303 1270 1608 1514 1942 1866 1893 1796 1666 1539 1385 1368 1496 1544 1504 1448 1161 1022 1038 1018 1055 1058 1093 558 691 623 484 490 798 867 933 1020 1020 1265 1329 1213 1357 1564 1560 1530 1239 829 639 518 411 137 46 55 54 70 68 29
0 0 0 7 24 29 45 58 52 56 62 58 76 62 55 154 311 431 612 912 1024 1018 1324 1362 1420 1412 1530 1602 1546 1549 1152 1345 1355 1399 1467 1600 1452 1563 2037 2099 2006 1905 1810 1517 1289 1343 1457 1474 1383 1344 1253 1052 781 913 1334 1984 974 634 637 591 426 420 304 1020 971 872 810 1146 973 1153 1409 1653 1718 1443 962 714 608 616 444 153 40 57 55 116 78
0 0 0 0 3 13 27 39 52 76 58 87 136 137 106 121 136 194 231 623 903 947 1040 1062 1079 1191 1217 1352 1478 1426 1385 1303 1382 1354 1327 1498 1462 1713 1530 1719 1806 2509 2026 1528 1315 1243 1205 1270 1283 1252 1217 1058 752 832 1315 1820 1774 960 615 479 506 325 448 292 1584 1714 1302 1066 1075 1172 1406 1448 1488 1320 1194 864 795 663 486 416 239 75 109 124 132
0 0 0 0 0 3 4 36 72 70 70 94 102 156 205 200 280 241 166 168 325 531 563 716 788 991 1165 1298 1372 1314 1262 1277 1299 1216 1216 1238 1418 1417 1733 1668 1164 2101 1875 1711 1427 1418 1305 965 727 747 902 1215 1089 842 998 1776 2037 1905 1254 796 605 676 768 664 1024 1076 1755 1680 1485 1038 1210 1481 1591 1161 1152 934 795 740 633 546 455 366 196 168 194
0 0 0 0 0 0 0 8 42 68 97 109 108 129 162 225 313 355 354 366 296 310 451 705 782 887 859 1095 1352 1509 1397 1357 1317 1204 1158 1225 1347 1319 1294 1222 1196 1442 1767 1924 1727 1483 1283 948 624 688 739 750 993 971 799 1237 1900 2051 1535 1340 1136 917 784 623 817 1033 1016 1523 1423 1405 1306 1221 1368 1240 1016 961 784 676 641 608 554 478 376 259 269
0 0 0 0 0 0 0 0 3 35 103 138 110 113 31 46 143 267 343 436 373 480 649 612 659 790 771 941 1089 1376 1447 1347 1356 1418 1423 1362 1246 1302 1383 1331 1134 1085 1112 2117 1837 1452 1421 1154 1016 878 651 625 763 813 848 814 1377 1972 1480 1449 1227 1203 1029 915 762 559 793 807 572 893 1211 1366 1239 1280 1132 1000 910 765 678 637 508 463 477 421 394
0 0 0 0 0 0 0 0 0 21 69 56 84 108 62 120 85 145 246 272 423 403 406 402 480 480 650 732 934 1152 1294 1518 1583 1577 1581 1534 1442 1556 1641 1620 1794 1766 1944 1270 1156 1260 1071 1322 2029 1830 1738 1448 1206 1110 1121 1069 953 1186 1530 1418 1058 1098 1001 996 930 930 830 897 756 638 739 1320 1418 1365 1349 1032 945 917 783 712 647 412 509 455 452
0 0 0 0 0 0 0 0 0 0 10 42 56 98 124 161 176 152 174 218 340 555 474 418 511 500 465 581 754 1062 1217 1383 1668 1740 1598 1434 1536 1668 1820 1843 1635 1103 952 795 741 800 1001 1692 2256 2206 1982 1950 1732 1757 1846 1649 1507 1530 1361 1494 1419 1351 1086 995 936 984 760 690 674 533 958 673 1316 1545 1412 1225 1051 910 790 744 712 646 511 574 541
0 0 0 0 0 0 0 0 0 0 12 18 55 71 243 260 206 262 296 289 443 650 666 583 403 391 379 509 592 827 1146 1324 1493 1630 1747 1743 1745 1650 1757 1900 1563 1091 911 838 712 507 953 951 929 1018 569 842 1357 1821 1907 1888 1908 1756 1639 1566 1406 1190 1334 738 1104 1329 1431 1272 938 593 1068 1028 731 972 1397 1333 1328 1027 835 734 735 817 758 590 528
Wind_Speed
27 29 28 26 23 26 27 29 30 31 30 31 28 22 20 20 22 22 20 19 18 18 17 16 15 13 12 11 11 11 10 9 10 10 9 9 8 10 11 13 15 16 16 17 16 16 16 16 16 16 16 15 15 15 15 15 15 15 16 15 15 16 16 17 18 19 19 nan nan nan nan nan nan nan nan nan nan nan nan nan nan nan nan nan nan
28 27 27 25 21 23 25 26 30 32 31 30 28 22 18 17 18 20 21 19 18 17 17 15 14 13 12 11 10 10 9 10 10 10 10 10 9 10 12 13 15 16 16 16 16 16 16 15 15 15 15 14 14 14 14 14 14 14 14 15 15 14 14 16 17 nan nan nan nan nan nan nan nan nan nan nan nan nan nan nan nan nan nan nan nan
29 27 27 26 22 22 24 24 28 31 31 30 26 21 17 16 16 18 19 19 18 18 16 14 13 12 11 10 9 9 10 10 10 10 10 10 10 11 12 13 14 15 15 15 16 15 15 15 15 14 14 14 14 14 14 14 14 14 14 14 14 nan nan nan nan nan nan nan nan nan nan nan nan nan nan nan nan nan nan nan nan nan nan nan nan
30 28 28 27 23 20 22 23 25 28 27 25 22 19 17 16 16 16 17 17 16 16 15 13 12 11 10 9 9 9 9 10 10 10 10 10 11 12 12 13 14 15 15 15 15 15 15 14 14 15 15 14 13 13 14 14 14 13 13 13 nan nan nan nan nan nan nan nan nan nan nan nan nan nan nan nan nan nan nan nan nan nan nan nan nan
28 28 28 24 22 21 20 22 24 25 25 21 16 15 16 17 16 15 16 16 16 15 14 12 11 11 10 9 9 9 10 10 10 10 10 11 10 11 13 14 14 15 15 15 15 15 15 14 14 14 14 12 12 12 12 13 12 12 12 nan nan nan nan nan nan nan nan nan nan nan nan nan nan nan nan nan nan nan nan nan nan nan nan nan nan
26 26 25 21 20 20 18 20 23 23 24 22 17 15 15 16 16 15 15 15 16 16 14 13 11 11 11 10 10 9 10 10 10 10 10 10 11 13 14 14 14 14 15 15 14 14 13 13 12 13 12 11 10 11 11 12 11 nan nan nan nan nan nan nan nan nan nan nan nan nan nan nan nan nan nan nan nan nan nan nan nan nan nan nan nan
25 22 20 19 18 18 18 18 21 23 26 26 21 16 15 15 16 16 15 15 16 17 16 15 12 11 11 10 10 10 10 11 10 10 10 11 12 13 14 14 14 14 14 14 13 12 12 11 11 12 12 11 11 10 11 11 nan nan nan nan nan nan nan nan nan nan nan nan nan nan nan nan nan nan nan nan nan nan nan nan nan nan nan nan nan
18 17 17 16 17 20 19 18 20 22 26 29 24 17 15 14 16 16 15 15 16 17 18 16 13 11 11 11 11 11 11 11 11 10 11 11 11 13 14 14 13 13 13 13 12 12 11 11 11 11 12 12 12 11 11 nan nan nan nan nan nan nan nan nan nan nan nan nan nan nan nan nan nan nan nan nan nan nan nan nan nan nan nan nan nan
17 16 15 15 18 22 20 19 19 21 23 26 24 18 15 15 16 17 16 15 16 16 16 16 15 12 13 12 12 12 11 11 11 10 11 11 11 12 13 14 13 12 12 12 12 12 12 12 12 13 13 12 12 11 11 nan nan nan nan nan nan nan nan nan nan nan nan nan nan nan nan nan nan nan nan nan nan nan nan nan nan nan nan nan nan
17 15 14 13 16 22 21 20 19 20 21 22 22 19 16 16 17 17 17 16 15 15 15 15 15 14 13 13 13 12 12 12 11 11 11 12 12 12 12 12 12 12 12 12 12 13 15 15 14 14 13 12 12 11 11 nan nan nan nan nan nan nan nan nan nan nan nan nan nan nan nan nan nan nan nan nan nan nan nan nan nan nan nan nan nan
15 14 11 13 18 19 18 18 18 19 20 21 22 20 18 16 16 16 17 16 15 15 14 15 14 13 12 13 14 14 13 13 12 11 12 12 13 13 14 12 11 12 12 12 13 15 16 16 15 15 13 13 12 11 10 11 nan nan nan nan nan nan nan nan nan nan nan nan nan nan nan nan nan nan nan nan nan nan nan nan nan nan nan nan nan
12 12 10 12 18 17 16 17 17 18 20 21 21 21 20 19 18 17 16 17 16 15 14 14 13 12 11 11 13 14 14 13 13 12 13 13 14 15 15 14 13 13 12 13 14 15 16 17 16 16 14 13 13 12 11 nan nan nan nan nan nan nan nan nan nan nan nan nan nan nan nan nan nan nan nan nan nan nan nan nan nan nan nan nan nan
8 8 11 13 14 16 15 17 18 19 20 22 21 21 21 21 21 20 18 17 17 16 15 14 13 12 11 11 11 12 12 12 12 12 13 13 14 16 17 17 16 15 14 14 15 16 17 17 17 16 15 14 13 12 12 nan nan nan nan nan nan nan nan nan nan nan nan nan nan nan nan nan nan nan nan nan nan nan nan nan nan nan nan nan nan
4 8 10 13 13 19 18 18 19 20 21 21 21 21 20 21 22 21 20 19 18 16 15 15 14 12 11 11 11 11 11 10 11 12 13 14 14 16 17 18 18 17 16 16 17 17 17 18 18 17 16 15 13 13 13 nan nan nan nan nan nan nan nan nan nan nan nan nan nan nan nan nan nan nan nan nan nan nan nan nan nan nan nan nan nan
10 10 11 13 16 18 21 20 20 21 22 22 23 22 21 21 21 22 21 21 19 18 17 16 15 13 12 12 12 12 12 11 11 12 14 14 15 17 18 19 19 18 18 18 18 17 18 18 18 17 16 16 15 14 13 nan nan nan nan nan nan nan nan nan nan nan nan nan nan nan nan nan nan nan nan nan nan nan nan nan nan nan nan nan nan
12 12 13 14 16 17 17 19 20 21 21 22 22 22 22 21 22 22 22 22 21 21 19 17 16 14 14 13 13 13 13 13 12 13 14 15 16 17 19 21 20 19 19 19 18 18 18 18 18 18 17 16 15 15 14 nan nan nan nan nan nan nan nan nan nan nan nan nan nan nan nan nan nan nan nan nan nan nan nan nan nan nan nan nan nan
10 11 13 16 18 17 17 17 19 21 21 21 21 21 22 22 22 23 23 23 23 23 22 20 17 16 15 15 14 13 13 13 13 14 15 16 16 17 18 21 22 20 20 19 18 18 18 18 18 18 17 16 16 15 15 14 nan nan nan nan nan nan nan nan nan nan nan nan nan nan nan nan nan nan nan nan nan nan nan nan nan nan nan nan nan
14 14 14 15 16 17 16 17 19 19 20 21 22 23 23 23 23 24 23 23 24 25 24 23 21 19 17 15 16 15 15 14 14 14 15 16 17 17 18 19 21 21 20 19 18 18 18 18 19 19 18 17 17 16 16 nan nan nan nan nan nan nan nan nan nan nan nan nan nan nan nan nan nan nan nan nan nan nan nan nan nan nan nan nan nan
13 14 15 15 15 16 16 16 16 17 20 18 19 21 23 24 25 24 24 25 24 24 25 25 24 22 20 18 17 16 16 16 15 15 16 17 17 17 17 18 20 21 21 20 19 18 18 18 19 20 20 18 18 17 16 nan nan nan nan nan nan nan nan nan nan nan nan nan nan nan nan nan nan nan nan nan nan nan nan nan nan nan nan nan nan
11 12 14 14 15 15 16 15 15 16 17 18 18 21 22 23 23 24 24 24 25 25 25 25 25 25 24 22 19 17 17 17 18 16 17 17 18 15 16 16 18 20 21 20 19 18 17 18 20 21 21 20 19 18 17 nan nan nan nan nan nan nan nan nan nan nan nan nan nan nan nan nan nan nan nan nan nan nan nan nan nan nan nan nan nan
12 15 13 15 15 16 17 15 14 16 16 17 17 18 20 22 21 21 21 22 22 24 25 25 25 25 25 23 20 15 16 18 16 17 18 15 18 19 17 17 17 19 21 21 20 18 17 17 20 22 22 22 20 19 18 nan nan nan nan nan nan nan nan nan nan nan nan nan nan nan nan nan nan nan nan nan nan nan nan nan nan nan nan nan nan
18 17 24 23 21 21 16 18 17 16 17 18 19 19 20 18 18 17 17 18 18 20 20 20 21 22 24 24 19 18 17 17 18 19 16 18 18 19 18 18 18 19 20 21 21 19 17 17 19 22 23 23 23 17 17 16 nan nan nan nan 9 nan nan nan nan nan nan nan nan nan nan nan nan nan nan nan nan nan nan nan nan nan nan nan nan
19 21 18 19 18 16 22 24 27 22 20 22 18 22 20 17 18 17 14 13 16 16 16 17 17 20 21 22 22 20 19 20 19 18 18 19 20 19 19 20 19 19 20 21 21 20 18 18 20 21 22 23 16 16 16 15 14 nan nan nan nan nan nan nan nan nan nan nan nan nan nan nan nan nan nan nan nan nan nan nan nan nan nan nan nan
26 23 22 23 26 27 27 18 15 19 22 14 19 19 17 14 17 17 17 13 14 13 14 15 16 16 19 21 21 22 21 21 24 23 22 19 21 19 20 21 21 20 21 20 21 20 20 20 19 20 18 15 14 15 16 15 14 12 nan nan nan nan nan nan nan nan nan nan nan nan nan nan nan nan nan nan nan nan nan nan nan nan nan nan nan
29 27 27 30 30 28 22 21 17 16 14 15 13 13 10 11 14 16 14 15 14 14 15 15 15 16 17 18 20 22 21 22 22 21 19 20 20 19 18 16 17 18 19 17 17 18 16 16 16 15 12 14 14 15 15 16 14 14 14 15 nan nan nan nan nan nan nan nan nan nan nan nan nan nan nan nan nan nan nan nan nan nan nan nan nan
28 25 30 31 26 23 23 25 23 23 19 15 13 13 10 8 8 9 13 15 15 15 17 17 17 16 16 17 19 20 20 21 22 22 21 22 21 20 17 18 16 16 15 16 17 16 14 15 14 12 13 13 15 16 16 15 16 14 14 15 nan nan nan nan nan nan nan nan nan nan nan nan nan nan nan nan nan nan nan nan nan nan nan nan nan
25 29 28 32 28 27 29 28 25 25 26 24 21 19 16 13 12 10 9 12 16 17 16 17 18 18 16 17 18 18 19 20 21 22 22 23 22 21 20 19 17 16 15 15 17 16 15 15 13 12 13 15 15 17 16 16 15 16 15 15 16 nan nan nan nan nan nan nan nan nan nan nan nan nan nan nan nan nan nan nan nan nan nan nan nan
23 27 33 31 26 29 31 31 31 30 28 28 26 23 22 21 21 17 16 13 12 14 16 18 20 17 16 17 17 17 17 18 20 21 22 23 23 22 21 19 19 17 16 14 17 18 16 16 14 12 12 14 16 16 16 17 15 15 17 16 16 16 nan nan nan nan nan nan nan nan nan nan nan nan nan nan nan nan nan nan nan nan nan nan nan
27 31 36 35 28 27 30 33 32 32 30 26 25 27 28 25 24 22 19 16 15 14 14 12 11 13 14 16 16 17 17 17 19 20 21 22 24 24 23 21 21 18 17 15 16 18 17 17 16 13 12 13 14 15 15 16 15 16 17 17 16 16 15 nan nan nan nan nan nan nan nan nan nan nan nan nan nan nan nan nan nan nan nan nan nan
33 36 39 41 35 25 30 33 34 33 31 28 27 28 30 29 25 22 23 21 19 17 17 13 12 14 14 16 14 17 18 19 20 20 22 24 23 25 24 23 21 20 18 17 17 17 17 18 16 14 14 12 12 15 13 15 15 16 17 19 18 16 16 14 nan nan nan nan nan nan nan nan nan nan nan nan nan nan nan nan nan nan nan nan nan
38 40 41 43 45 43 38 37 36 34 33 31 29 30 31 30 27 24 22 22 21 21 19 15 13 14 16 18 20 18 20 21 23 24 24 25 25 25 25 24 23 21 19 18 18 17 17 18 16 15 15 12 12 14 11 14 14 15 18 18 19 17 17 15 14 nan nan nan nan nan nan nan nan nan nan nan nan nan nan nan nan nan nan nan nan
41 41 42 44 47 48 45 42 40 38 36 34 33 32 33 32 30 27 24 22 22 22 21 18 18 18 19 21 20 21 20 27 26 27 26 26 26 26 26 25 24 23 20 18 18 17 17 17 17 17 15 14 13 13 12 12 13 13 16 17 17 17 18 16 14 16 14 14 nan nan nan nan nan nan nan nan nan nan nan nan nan nan nan nan nan
41 44 45 48 49 48 47 47 44 43 41 39 38 36 35 33 33 29 26 25 24 22 21 21 21 21 23 25 24 25 25 25 26 25 25 25 27 26 25 26 25 24 22 20 17 17 17 18 18 17 16 16 14 14 14 13 12 13 14 16 14 16 18 17 16 16 14 15 13 nan nan nan nan nan nan nan nan nan nan nan nan nan nan nan nan
43 44 47 50 48 47 47 47 47 47 46 44 41 38 36 35 34 31 30 28 27 25 22 24 23 24 27 30 27 24 21 22 23 24 22 22 24 25 24 24 24 24 23 22 19 17 16 18 19 18 18 17 16 16 15 15 14 14 14 14 13 13 16 17 17 16 14 14 14 12 12 nan nan nan nan nan nan nan nan nan nan nan nan nan nan
46 47 49 49 51 50 49 49 49 49 48 47 45 43 40 37 36 34 32 31 30 28 27 31 28 26 27 29 25 22 20 23 26 25 23 26 22 22 23 23 24 24 22 22 20 19 17 17 19 20 20 19 19 18 15 17 16 15 16 15 13 13 14 16 17 16 15 14 13 13 11 11 nan nan nan nan nan nan nan nan nan nan nan nan nan
50 49 nan nan 51 51 51 51 51 51 50 48 46 45 43 41 38 36 33 31 31 30 29 30 29 27 27 26 24 22 22 23 25 27 27 27 23 22 22 23 24 24 23 23 22 20 19 17 18 20 21 21 20 20 18 18 18 17 18 16 14 13 13 14 17 17 15 14 13 13 11 10 10 nan nan nan nan nan nan nan nan nan nan nan nan
49 nan nan nan nan nan 49 50 50 50 49 49 47 45 44 42 40 38 36 34 32 31 30 31 31 30 29 27 24 24 23 23 25 27 29 28 26 24 22 22 24 23 22 22 22 21 21 20 19 19 20 21 21 21 21 18 20 19 19 18 16 15 13 13 15 17 17 14 13 11 11 11 10 nan nan nan nan nan nan nan nan nan nan nan nan
nan nan nan nan nan nan 46 47 46 46 46 46 46 45 44 42 41 40 39 37 34 33 32 32 32 33 30 27 24 23 24 23 24 27 27 27 27 27 30 23 24 24 23 21 21 22 21 21 20 20 20 21 22 22 22 20 19 20 21 20 17 15 14 14 13 15 17 16 13 11 9 9 10 11 nan nan nan nan nan nan nan nan nan nan nan
nan nan nan nan nan nan nan nan 43 43 42 42 42 42 42 42 41 40 40 38 37 37 35 34 33 34 33 30 27 25 24 22 25 26 24 26 28 28 33 24 24 25 24 21 20 21 21 21 21 21 21 21 22 23 21 21 19 19 21 21 20 17 16 15 13 14 15 15 14 12 10 8 9 11 10 nan nan nan nan nan nan nan nan nan nan
nan nan nan nan nan nan nan nan nan 38 37 38 39 40 41 40 40 40 40 41 40 39 38 36 35 35 34 32 30 27 25 24 23 24 24 26 27 26 30 30 23 25 24 22 22 22 22 21 21 20 21 21 21 22 22 21 20 18 19 20 21 18 15 16 15 13 13 14 14 13 9 9 9 11 12 9 nan nan nan nan nan nan nan nan nan
nan nan nan nan nan nan nan nan nan nan nan nan nan 36 38 38 38 38 38 39 40 40 39 38 37 37 35 33 32 30 27 25 25 24 24 25 26 25 26 29 28 25 25 24 25 23 24 22 22 23 20 19 20 22 22 22 21 20 19 19 21 20 17 17 15 14 12 13 14 13 11 9 9 11 12 10 7 nan nan nan nan nan nan nan nan
nan nan nan nan nan nan nan nan nan nan nan nan nan nan nan 35 34 34 36 36 38 39 40 41 40 40 39 37 35 32 30 27 27 26 24 24 25 24 25 26 27 27 25 26 26 26 23 22 23 23 23 20 21 22 23 23 21 19 19 20 21 22 21 19 16 14 12 11 12 13 12 10 9 11 13 11 8 nan nan nan nan nan nan nan nan
nan nan nan nan nan nan nan nan nan nan nan nan nan nan nan 30 30 30 31 33 35 37 38 39 39 38 37 36 35 33 32 29 27 28 27 25 25 25 25 27 28 29 28 26 27 27 25 22 21 22 23 23 22 23 22 22 19 20 18 17 19 21 23 21 20 15 12 11 12 12 13 10 10 11 13 12 9 6 7 nan nan nan nan nan nan
nan nan nan nan nan nan nan nan nan nan nan nan nan nan nan 25 26 27 27 29 31 34 35 35 36 37 37 38 37 35 32 31 28 28 29 27 25 25 26 27 28 28 28 28 28 27 26 24 21 21 23 23 23 23 23 23 19 20 18 17 18 20 21 21 21 19 13 12 11 11 13 11 11 12 12 12 9 7 8 8 nan nan nan 10 nan
nan nan nan nan nan nan nan nan nan nan nan nan 28 27 27 27 27 27 26 26 27 30 32 33 35 37 39 40 39 37 35 33 31 29 29 29 27 26 27 28 26 28 28 27 28 27 28 25 22 23 24 24 23 24 24 22 18 17 17 19 18 19 20 23 28 23 20 15 12 11 11 10 11 14 14 12 9 8 8 8 8 nan 11 11 11
nan nan nan nan nan nan nan nan nan nan nan nan 28 28 28 28 28 29 29 29 28 29 31 33 35 38 39 41 40 39 37 36 33 30 30 29 28 26 25 25 24 26 27 27 27 28 28 26 25 25 25 23 24 24 22 24 20 18 17 16 16 20 24 26 26 24 24 15 14 12 11 9 10 14 15 12 10 9 10 8 8 8 9 11 11
nan nan nan nan nan nan nan nan nan nan nan 25 25 24 24 25 26 27 28 28 28 28 30 31 33 35 37 39 41 40 39 37 35 32 31 31 29 27 25 23 23 25 26 26 27 27 28 28 28 28 27 27 25 22 21 24 23 19 19 18 15 15 18 23 25 25 18 18 15 14 11 9 10 13 15 13 10 10 10 8 8 9 9 10 10
nan nan nan nan nan nan nan nan nan nan 24 24 22 22 nan nan 22 23 25 27 28 28 28 29 31 32 33 35 38 39 39 39 37 34 32 32 31 29 26 24 22 23 25 25 24 25 27 29 29 28 28 28 26 24 23 23 21 22 24 23 19 16 16 18 20 20 18 16 18 12 12 10 10 12 14 13 10 9 10 9 8 9 9 10 10
nan nan nan nan nan nan nan nan nan nan nan nan nan 23 nan 22 nan 22 22 24 26 28 29 29 30 31 31 33 35 37 39 39 38 36 34 32 32 30 28 26 26 26 31 31 25 23 23 22 28 29 28 29 28 26 26 25 23 23 28 26 22 19 20 20 20 20 18 16 14 14 12 15 13 12 15 14 11 10 10 11 9 8 9 9 10
nan nan nan nan nan nan nan nan nan nan nan nan nan nan 24 24 24 23 20 21 23 26 28 29 30 31 30 31 33 34 36 38 37 35 35 34 32 31 29 28 27 28 34 31 24 22 21 22 25 27 29 29 28 27 27 27 27 27 28 29 26 23 22 22 22 22 18 15 14 12 16 15 18 15 15 15 11 9 10 11 10 8 8 9 10
nan nan nan nan nan nan nan nan nan nan nan nan nan nan 28 27 27 25 22 20 20 22 24 26 29 30 29 30 32 32 33 36 37 37 36 35 34 32 31 30 32 33 37 30 28 26 26 28 27 33 31 30 28 28 27 28 29 30 30 30 27 23 25 25 24 26 24 21 17 14 15 17 15 14 18 16 13 10 10 11 11 9 8 8 8
Wind_Direction
294 294 295 294 298 298 301 302 296 297 289 266 254 249 255 258 258 260 260 261 269 275 278 281 286 289 288 288 287 284 282 281 281 280 281 286 292 298 304 308 311 314 317 317 314 313 313 312 313 313 312 309 303 301 301 301 300 299 295 292 288 287 289 287 285 282 280 nan nan nan nan nan nan nan nan nan nan nan nan nan nan nan nan nan nan
298 296 295 298 295 297 298 301 296 295 287 265 256 252 253 256 260 262 260 263 269 273 277 280 285 286 288 287 287 286 286 283 282 282 283 287 293 298 301 307 309 313 313 313 313 314 314 312 310 310 306 304 303 304 305 304 304 301 299 297 295 291 289 288 291 nan nan nan nan nan nan nan nan nan nan nan nan nan nan nan nan nan nan nan nan
294 297 296 298 295 296 296 299 299 294 283 268 260 260 268 272 266 262 260 265 271 274 276 282 284 285 287 287 288 287 284 283 284 286 290 291 295 299 302 305 303 307 308 309 310 309 309 309 310 307 303 302 304 308 308 307 307 304 300 297 295 nan nan nan nan nan nan nan nan nan nan nan nan nan nan nan nan nan nan nan nan nan nan nan nan
294 293 295 297 295 292 298 299 296 290 278 267 261 263 279 288 276 264 260 264 271 274 276 279 280 282 284 283 282 281 280 282 284 287 287 289 292 297 298 296 299 301 302 302 304 306 309 310 312 310 307 307 309 310 309 307 305 302 299 297 nan nan nan nan nan nan nan nan nan nan nan nan nan nan nan nan nan nan nan nan nan nan nan nan nan
289 291 292 297 297 295 297 299 295 285 275 268 265 270 279 287 281 269 261 260 268 272 273 272 273 273 274 276 277 277 280 280 281 285 286 288 287 290 290 290 292 297 297 298 302 306 309 313 314 310 303 302 305 303 302 302 301 300 299 nan nan nan nan nan nan nan nan nan nan nan nan nan nan nan nan nan nan nan nan nan nan nan nan nan nan
285 286 290 292 293 292 292 297 293 280 270 268 270 272 268 272 274 273 267 261 260 262 263 264 264 265 264 269 272 275 277 277 279 282 284 279 281 284 285 288 291 295 294 298 300 304 309 312 311 307 302 298 296 298 300 300 300 nan nan nan nan nan nan nan nan nan nan nan nan nan nan nan nan nan nan nan nan nan nan nan nan nan nan nan nan
284 283 285 286 284 289 289 291 291 278 269 267 268 265 265 269 273 273 269 262 255 252 251 251 253 258 264 268 266 271 272 275 276 281 281 278 282 283 285 287 290 291 294 296 299 303 304 307 309 308 304 304 303 301 300 299 nan nan nan nan nan nan nan nan nan nan nan nan nan nan nan nan nan nan nan nan nan nan nan nan nan nan nan nan nan
277 279 286 284 282 287 290 286 291 285 275 266 262 270 277 276 278 278 275 268 264 262 257 253 254 258 263 266 265 269 274 276 278 279 278 280 278 281 283 284 286 291 295 298 302 304 309 310 307 301 304 309 305 303 300 nan nan nan nan nan nan nan nan nan nan nan nan nan nan nan nan nan nan nan nan nan nan nan nan nan nan nan nan nan nan
271 277 280 281 283 294 289 283 282 287 280 272 268 278 289 288 287 286 285 282 279 277 269 261 257 259 258 262 268 269 271 274 275 278 281 281 280 279 283 286 290 294 295 300 304 306 301 303 301 297 302 306 306 306 303 nan nan nan nan nan nan nan nan nan nan nan nan nan nan nan nan nan nan nan nan nan nan nan nan nan nan nan nan nan nan
268 271 274 274 287 295 294 292 287 284 284 284 282 284 293 295 293 294 293 291 290 286 283 273 263 262 264 263 261 266 270 274 275 277 283 286 287 284 280 283 292 292 291 295 301 301 298 299 299 298 301 305 306 308 306 nan nan nan nan nan nan nan nan nan nan nan nan nan nan nan nan nan nan nan nan nan nan nan nan nan nan nan nan nan nan
267 262 268 276 289 296 296 301 298 292 290 289 290 289 293 296 297 299 299 295 294 293 290 287 279 270 273 270 261 262 267 271 274 278 285 288 288 288 285 283 286 287 288 292 298 299 298 298 299 300 305 307 307 308 305 298 nan nan nan nan nan nan nan nan nan nan nan nan nan nan nan nan nan nan nan nan nan nan nan nan nan nan nan nan nan
263 252 264 273 286 296 296 301 302 300 297 294 294 295 295 300 302 301 300 298 297 296 293 293 288 279 278 279 272 268 268 272 276 278 285 289 288 287 285 285 282 277 280 288 295 298 297 298 298 303 306 307 308 306 302 nan nan nan nan nan nan nan nan nan nan nan nan nan nan nan nan nan nan nan nan nan nan nan nan nan nan nan nan nan nan
240 243 256 278 292 296 294 298 300 303 303 301 298 299 299 300 304 304 299 297 295 296 298 295 289 286 281 275 276 274 272 276 280 282 285 291 294 290 286 283 282 281 282 286 290 294 296 296 297 302 305 305 306 303 300 nan nan nan nan nan nan nan nan nan nan nan nan nan nan nan nan nan nan nan nan nan nan nan nan nan nan nan nan nan nan
291 269 280 290 293 302 300 297 300 303 303 301 302 300 298 297 299 301 298 295 293 293 294 294 292 288 276 273 270 268 271 275 282 288 291 294 297 296 290 284 282 283 286 288 291 292 294 296 298 299 302 301 303 301 297 nan nan nan nan nan nan nan nan nan nan nan nan nan nan nan nan nan nan nan nan nan nan nan nan nan nan nan nan nan nan
333 320 311 306 305 311 309 305 301 302 303 302 301 301 301 299 295 295 295 295 292 287 285 289 293 285 275 269 269 268 272 277 282 288 293 297 298 299 296 291 286 287 287 289 293 293 294 295 297 298 297 301 301 300 297 nan nan nan nan nan nan nan nan nan nan nan nan nan nan nan nan nan nan nan nan nan nan nan nan nan nan nan nan nan nan
331 332 320 315 317 316 317 309 305 304 302 305 304 302 301 299 298 294 294 293 291 287 281 283 289 287 281 274 268 269 273 278 285 290 291 295 298 301 299 295 292 290 290 289 292 294 294 294 295 294 295 298 300 300 296 nan nan nan nan nan nan nan nan nan nan nan nan nan nan nan nan nan nan nan nan nan nan nan nan nan nan nan nan nan nan
314 323 317 312 316 318 316 316 309 306 306 309 307 306 304 301 299 296 295 292 291 288 284 283 282 283 282 280 276 273 274 281 288 291 294 294 298 301 301 297 294 292 292 292 292 293 293 294 294 294 295 296 299 298 297 291 nan nan nan nan nan nan nan nan nan nan nan nan nan nan nan nan nan nan nan nan nan nan nan nan nan nan nan nan nan
308 318 313 310 308 308 309 311 310 308 305 305 307 310 309 307 302 298 293 292 290 288 288 286 281 279 280 277 277 276 279 279 286 292 293 295 297 300 301 299 296 292 292 292 292 292 295 295 294 293 293 296 297 298 295 nan nan nan nan nan nan nan nan nan nan nan nan nan nan nan nan nan nan nan nan nan nan nan nan nan nan nan nan nan nan
303 307 308 308 305 299 302 300 308 307 303 301 301 303 308 308 307 300 297 295 291 289 291 290 285 279 276 275 276 277 277 281 283 286 290 290 293 297 299 303 299 295 292 291 291 292 296 297 295 292 292 295 296 296 296 nan nan nan nan nan nan nan nan nan nan nan nan nan nan nan nan nan nan nan nan nan nan nan nan nan nan nan nan nan nan
273 290 291 296 295 292 289 288 294 295 295 294 296 298 301 302 303 304 303 298 296 293 292 291 290 285 278 277 278 277 280 279 283 283 284 287 293 292 297 301 302 298 294 291 289 289 293 297 297 294 292 292 292 292 294 nan nan nan nan nan nan nan nan nan nan nan nan nan nan nan nan nan nan nan nan nan nan nan nan nan nan nan nan nan nan
265 265 264 264 267 270 270 263 273 278 277 277 278 284 288 295 293 298 299 300 298 298 293 290 289 287 283 279 278 275 274 273 281 276 286 284 282 286 297 301 301 299 294 290 287 287 288 294 297 295 293 292 291 291 289 nan nan nan nan nan nan nan nan nan nan nan nan nan nan nan nan nan nan nan nan nan nan nan nan nan nan nan nan nan nan
267 245 232 232 220 212 231 251 252 255 254 255 252 261 265 274 274 279 284 287 292 293 290 286 287 282 286 279 273 268 267 270 270 278 274 278 283 288 292 295 297 297 294 291 286 286 288 292 297 296 295 297 307 297 292 291 nan nan nan nan 326 nan nan nan nan nan nan nan nan nan nan nan nan nan nan nan nan nan nan nan nan nan nan nan nan
267 269 280 282 269 266 247 219 209 215 238 233 238 243 256 252 259 260 260 273 278 284 281 284 281 279 281 276 270 266 266 265 269 269 267 269 274 287 290 290 293 294 295 290 288 287 290 296 299 298 300 312 319 290 291 291 289 nan nan nan nan nan nan nan nan nan nan nan nan nan nan nan nan nan nan nan nan nan nan nan nan nan nan nan nan
274 275 276 265 255 259 268 275 253 238 246 223 218 227 214 225 243 248 244 248 253 256 265 271 271 272 271 268 265 265 264 261 264 266 271 272 275 281 284 288 291 292 292 289 287 285 288 296 299 302 306 310 292 292 289 287 289 295 nan nan nan nan nan nan nan nan nan nan nan nan nan nan nan nan nan nan nan nan nan nan nan nan nan nan nan
260 264 259 256 255 255 269 290 279 271 243 234 238 254 251 231 204 212 232 248 245 240 243 250 252 261 262 258 263 263 264 264 265 266 266 266 270 274 280 285 287 290 302 287 289 286 295 296 297 308 298 293 291 284 282 283 283 279 277 270 nan nan nan nan nan nan nan nan nan nan nan nan nan nan nan nan nan nan nan nan nan nan nan nan nan
256 259 260 261 265 270 272 262 264 268 260 261 256 250 267 255 251 258 213 202 222 237 240 237 241 245 247 251 253 258 260 262 266 267 267 266 265 269 272 274 281 286 295 283 284 287 289 291 300 303 291 289 287 288 286 284 281 279 277 273 nan nan nan nan nan nan nan nan nan nan nan nan nan nan nan nan nan nan nan nan nan nan nan nan nan
245 252 257 260 262 260 263 264 259 259 262 271 269 257 269 281 267 264 257 240 212 209 219 236 237 236 235 239 245 249 253 255 263 267 268 267 267 265 267 271 276 279 282 284 283 284 280 282 288 291 291 292 292 287 287 285 281 280 275 275 271 nan nan nan nan nan nan nan nan nan nan nan nan nan nan nan nan nan nan nan nan nan nan nan nan
252 254 255 256 260 262 265 267 266 263 265 276 277 270 278 283 278 278 273 270 261 238 216 215 222 244 235 231 237 242 247 252 258 263 267 267 268 267 267 268 268 272 275 273 280 277 277 276 281 287 292 293 293 293 289 288 288 282 280 276 272 273 nan nan nan nan nan nan nan nan nan nan nan nan nan nan nan nan nan nan nan nan nan nan nan
252 260 268 260 246 248 257 266 268 265 265 265 266 272 277 278 277 279 281 285 273 261 263 275 273 244 249 240 237 237 243 247 254 259 260 263 265 265 264 263 265 265 265 267 272 278 276 276 279 284 287 288 290 290 290 292 294 292 288 283 279 276 275 nan nan nan nan nan nan nan nan nan nan nan nan nan nan nan nan nan nan nan nan nan nan
253 258 264 272 276 266 259 259 263 263 267 267 266 267 272 276 276 281 288 289 283 263 251 269 277 277 262 257 242 241 239 243 250 253 258 259 259 261 259 258 257 260 262 262 262 266 270 272 276 281 282 281 286 286 291 294 298 296 293 289 287 284 281 284 nan nan nan nan nan nan nan nan nan nan nan nan nan nan nan nan nan nan nan nan nan
254 255 259 262 267 273 269 265 263 265 268 269 268 267 272 274 275 279 284 282 280 272 268 274 276 266 248 238 237 225 232 243 248 248 250 253 252 253 254 255 254 252 251 254 257 260 263 267 268 272 274 278 281 284 292 293 297 300 295 295 293 292 289 285 284 nan nan nan nan nan nan nan nan nan nan nan nan nan nan nan nan nan nan nan nan
254 253 258 262 265 266 268 266 266 265 265 265 267 268 270 274 277 277 277 274 275 282 280 271 264 260 259 257 251 244 224 231 232 243 244 246 247 245 247 248 251 251 250 246 249 253 259 262 265 268 266 270 274 278 283 288 293 293 294 294 295 295 293 288 288 283 283 285 nan nan nan nan nan nan nan nan nan nan nan nan nan nan nan nan nan
256 254 254 257 260 263 265 265 265 266 265 264 262 262 264 266 271 272 272 273 275 279 280 272 263 259 258 261 256 247 245 233 232 237 243 247 247 245 244 245 247 250 251 249 245 249 251 258 263 265 270 269 271 275 276 281 287 285 287 290 292 297 294 292 287 285 286 288 287 nan nan nan nan nan nan nan nan nan nan nan nan nan nan nan nan
255 255 254 256 259 263 265 265 263 265 264 265 265 265 264 267 269 268 266 267 270 272 272 271 262 260 254 247 251 258 254 258 262 259 251 248 253 256 253 252 250 254 255 255 253 251 254 260 265 267 268 270 272 272 272 278 283 284 283 284 285 288 287 289 287 285 283 284 285 284 289 nan nan nan nan nan nan nan nan nan nan nan nan nan nan
256 255 255 256 258 261 264 267 265 266 267 267 266 266 266 267 270 271 269 266 267 267 266 261 258 260 258 265 273 278 280 271 262 262 270 273 266 266 267 266 265 263 263 264 260 258 257 262 266 269 271 269 272 275 275 273 277 287 286 283 282 280 278 280 283 283 284 282 279 286 287 293 nan nan nan nan nan nan nan nan nan nan nan nan nan
254 254 nan nan 257 259 261 263 264 265 268 268 269 268 267 265 266 268 266 264 262 266 268 271 272 268 266 267 271 272 272 270 263 258 257 261 266 269 273 271 272 269 266 267 268 264 261 261 268 270 271 275 275 277 276 274 277 282 286 286 281 275 271 273 281 284 283 281 280 282 290 296 302 nan nan nan nan nan nan nan nan nan nan nan nan
254 nan nan nan nan nan 259 259 261 262 265 267 268 269 268 266 265 265 264 260 260 260 261 265 267 267 268 265 266 271 272 275 273 267 263 263 259 253 259 266 266 266 265 265 268 267 265 262 262 269 270 270 275 278 275 271 276 280 283 285 280 274 265 260 272 282 284 281 279 286 295 303 306 nan nan nan nan nan nan nan nan nan nan nan nan
nan nan nan nan nan nan 259 259 259 260 262 265 266 268 269 268 266 264 263 262 258 256 255 259 262 264 265 266 265 264 266 272 274 276 273 272 268 263 258 256 263 264 266 267 267 267 268 266 262 263 266 268 270 271 275 275 274 278 280 281 279 270 260 253 258 274 280 283 285 285 290 299 308 306 nan nan nan nan nan nan nan nan nan nan nan
nan nan nan nan nan nan nan nan 258 258 259 261 264 265 267 268 266 264 262 262 261 260 256 254 257 262 263 262 262 261 265 269 274 276 275 278 275 271 269 267 268 270 270 269 270 271 269 268 264 261 261 263 265 270 270 272 274 275 276 280 276 268 253 249 250 261 273 280 282 283 286 302 300 299 299 nan nan nan nan nan nan nan nan nan nan
nan nan nan nan nan nan nan nan nan 258 259 260 261 261 262 261 261 260 259 257 256 256 256 254 254 256 260 262 262 261 262 263 265 272 273 274 275 272 273 274 273 273 272 270 269 269 271 272 269 260 260 262 264 265 269 271 273 273 275 275 273 265 254 245 246 251 263 272 274 277 284 294 295 295 298 295 nan nan nan nan nan nan nan nan nan
nan nan nan nan nan nan nan nan nan nan nan nan nan 259 259 259 258 258 256 255 253 252 254 254 253 254 254 256 259 261 261 262 263 265 269 274 276 273 271 273 270 271 272 271 269 266 266 266 265 262 255 256 261 266 265 267 272 276 279 278 272 267 253 245 246 251 258 265 273 275 277 283 291 290 290 288 293 nan nan nan nan nan nan nan nan
nan nan nan nan nan nan nan nan nan nan nan nan nan nan nan 259 257 256 254 252 251 250 249 250 249 248 249 252 254 257 261 262 262 262 265 268 273 275 272 274 273 270 271 271 271 271 270 268 265 260 255 252 253 260 266 270 274 278 284 285 279 270 261 250 249 257 260 265 274 280 275 281 286 284 280 284 293 nan nan nan nan nan nan nan nan
nan nan nan nan nan nan nan nan nan nan nan nan nan nan nan 259 257 255 253 251 251 250 248 248 247 247 247 246 248 251 256 256 258 263 262 262 267 269 271 271 273 270 269 271 271 275 278 278 273 262 252 248 248 254 263 272 270 277 278 279 281 270 267 260 256 257 266 269 279 287 283 282 291 279 276 281 289 296 300 nan nan nan nan nan nan
nan nan nan nan nan nan nan nan nan nan nan nan nan nan nan 258 260 259 255 253 249 248 247 246 246 246 246 245 244 245 247 250 251 255 261 262 263 264 264 267 272 271 270 269 272 276 280 278 276 270 252 240 247 252 263 269 268 274 279 289 282 269 259 269 266 264 271 280 286 286 281 285 286 282 274 282 288 292 295 302 nan nan nan 310 nan
nan nan nan nan nan nan nan nan nan nan nan nan 257 257 258 258 259 259 260 259 257 254 251 248 247 247 246 246 245 243 243 245 246 249 252 256 260 260 262 262 260 269 270 269 272 278 280 278 278 269 257 242 239 243 254 263 269 271 269 275 281 275 260 251 264 261 269 279 295 294 288 297 293 285 279 281 285 293 297 308 305 nan 313 311 314
nan nan nan nan nan nan nan nan nan nan nan nan 252 253 255 255 255 255 256 257 255 255 252 245 242 241 241 241 242 241 240 242 244 245 248 252 255 258 259 261 266 268 272 270 273 276 280 279 275 266 255 245 236 238 244 256 257 267 273 269 266 260 252 246 256 255 267 265 272 284 297 298 286 285 281 278 291 295 297 301 302 304 306 308 310
nan nan nan nan nan nan nan nan nan nan nan 255 251 254 254 256 253 252 253 254 254 254 252 248 244 241 240 238 238 238 236 237 240 241 245 249 251 253 257 259 262 265 270 272 274 277 277 277 266 261 253 243 241 237 239 248 251 256 263 266 270 268 255 248 251 250 254 259 250 274 284 287 289 291 286 284 289 291 286 286 290 298 301 303 307
nan nan nan nan nan nan nan nan nan nan 256 256 255 258 nan nan 259 257 255 254 253 251 249 249 246 244 241 239 239 239 236 235 236 237 241 247 251 252 254 257 260 262 261 267 271 270 273 272 262 252 249 243 242 240 240 244 249 251 260 262 268 273 269 252 246 245 243 247 264 256 257 263 267 279 283 285 288 285 283 276 275 280 286 302 303
nan nan nan nan nan nan nan nan nan nan nan nan nan 257 nan 261 nan 263 261 258 251 251 252 252 250 248 243 241 239 238 237 235 234 234 235 240 247 250 252 254 254 255 252 249 248 249 257 268 260 249 243 239 240 243 242 245 249 251 259 263 264 268 273 265 250 252 245 235 234 252 262 264 265 266 272 276 276 272 272 275 271 266 275 290 300
nan nan nan nan nan nan nan nan nan nan nan nan nan nan 256 260 261 259 256 257 256 251 250 249 250 249 246 243 241 241 240 237 235 234 234 235 240 245 248 251 251 252 254 254 252 258 265 262 254 244 240 238 241 246 248 248 251 253 258 258 262 264 270 266 257 249 245 232 230 238 259 271 271 263 270 275 278 271 274 276 275 274 272 281 293
nan nan nan nan nan nan nan nan nan nan nan nan nan nan 253 256 258 255 251 250 251 252 249 248 250 251 249 246 244 242 243 240 236 232 231 233 236 240 243 246 249 249 251 253 256 250 241 247 241 236 227 231 234 242 248 251 250 254 259 259 259 262 266 262 251 250 243 231 229 226 231 232 254 263 281 279 272 276 272 274 273 274 271 273 280